Milledgeville, GA

8:18 AM EDT on June 27, 2017 (GMT -0400)
Baldwin County

Weather History for KMLJ - January, 2014

Change the Weather History Date:

Monday, January 13, 2014

  Actual Average (KOKZ) Record (KOKZ)
Temperature  
Mean Temperature 48 °F -  
Max Temperature 64 °F 52 °F 76 °F (2017)
Min Temperature 33 °F 31 °F 30 °F (2016)
Degree Days  
Heating Degree Days 16    
Moisture  
Dew Point 37 °F    
Average Humidity 77    
Maximum Humidity 100    
Minimum Humidity 22    
Precipitation  
Precipitation 0.00 in - - ()
Sea Level Pressure  
Sea Level Pressure 30.08 in    
Wind  
Wind Speed 0 mph (South)    
Max Wind Speed 4 mph    
Max Gust Speed -    
Visibility 9 miles    
Events Fog , Rain    
Averages and records for this station are not official NWS values.
T = Trace of Precipitation, MM = Missing Value Source: NWS Daily Summary

Daily Weather History Graph

Daily Weather History Graph

Search for Another Location

Airport or City:

Trip Planner

Search our weather history database for the weather conditions in past years. The results will help you decide how hot, cold, wet, or windy it might be!

Date:

Astronomy

Jan. 13, 2014 Rise Set
Actual Time 7:36 AM EST 5:47 PM EST
Civil Twilight 7:09 AM EST 6:13 PM EST
Nautical Twilight 6:39 AM EST 6:44 PM EST
Astronomical Twilight 6:09 AM EST 7:14 PM EST
Moon 4:00 PM EST (1/13) 5:25 AM EST (1/13)
Length of Visible Light 11h 04m
Length of Day
10h 10m
Waxing Gibbous, 95% of the Moon is Illuminated
Jan 13
Waxing Gibbous
Jan 15
Full
Jan 24
Last Quarter
Jan 30
New
Feb 6
First Quarter

Hourly Weather History & Observations

Time (EST) Temp. Dew Point Humidity Pressure Visibility Wind Dir Wind Speed Gust Speed Precip Events Conditions
12:15 AM 37.4 °F 35.6 °F 93% 30.17 in 10.0 mi Calm Calm - N/A   Clear
12:35 AM 35.6 °F 35.6 °F 100% 30.17 in 10.0 mi Calm Calm - N/A   Clear
12:55 AM 35.6 °F 35.6 °F 100% 30.17 in 10.0 mi Calm Calm - N/A   Clear
1:15 AM 35.6 °F 35.6 °F 100% 30.18 in 10.0 mi Calm Calm - N/A   Clear
1:35 AM 35.6 °F 35.6 °F 100% 30.17 in 10.0 mi Calm Calm - N/A   Clear
1:55 AM 35.6 °F 35.6 °F 100% 30.18 in 10.0 mi Calm Calm - N/A   Clear
2:15 AM 35.6 °F 35.6 °F 100% 30.18 in 10.0 mi Calm Calm - N/A   Clear
2:35 AM 35.6 °F 35.6 °F 100% 30.18 in 10.0 mi Calm Calm - N/A   Clear
2:55 AM 33.8 °F 33.8 °F 100% 30.18 in 7.0 mi Calm Calm - N/A   Clear
3:15 AM 33.8 °F 33.8 °F 100% 30.18 in 10.0 mi Calm Calm - N/A   Clear
3:35 AM 33.8 °F 33.8 °F 100% 30.19 in 7.0 mi Calm Calm - N/A   Clear
3:55 AM 33.8 °F 33.8 °F 100% 30.19 in 10.0 mi Calm Calm - N/A   Clear
4:15 AM 33.8 °F 33.8 °F 100% 30.19 in 7.0 mi Calm Calm - N/A   Clear
4:35 AM 33.8 °F 33.8 °F 100% 30.18 in 10.0 mi Calm Calm - N/A   Clear
4:55 AM 33.8 °F 33.8 °F 100% 30.18 in 7.0 mi Calm Calm - N/A   Mostly Cloudy
5:15 AM 33.8 °F 33.8 °F 100% 30.18 in 5.0 mi Calm Calm - N/A   Overcast
5:35 AM 33.8 °F 33.8 °F 100% 30.18 in 0.5 mi Calm Calm - N/A Fog Fog
5:55 AM 33.8 °F 33.8 °F 100% 30.18 in 5.0 mi Calm Calm - N/A   Clear
6:15 AM 33.8 °F 33.8 °F 100% 30.17 in 10.0 mi Calm Calm - N/A   Clear
6:35 AM 33.8 °F 33.8 °F 100% 30.16 in 10.0 mi Calm Calm - N/A   Clear
6:55 AM 33.8 °F 33.8 °F 100% 30.15 in 10.0 mi Calm Calm - N/A   Clear
7:15 AM 33.8 °F 33.8 °F 100% 30.15 in 10.0 mi Calm Calm - N/A   Clear
7:35 AM 33.8 °F 33.8 °F 100% 30.14 in 10.0 mi Calm Calm - N/A   Clear
7:55 AM 33.8 °F 33.8 °F 100% 30.14 in 10.0 mi Calm Calm - N/A   Clear
8:15 AM 33.8 °F 33.8 °F 100% 30.13 in 7.0 mi Calm Calm - N/A   Clear
8:35 AM 33.8 °F 33.8 °F 100% 30.13 in 10.0 mi Calm Calm - N/A   Clear
8:55 AM 35.6 °F 35.6 °F 100% 30.15 in 10.0 mi Calm Calm - N/A   Clear
9:15 AM 39.2 °F 39.2 °F 100% 30.16 in 10.0 mi Calm Calm - N/A   Clear
9:35 AM 41.0 °F 41.0 °F 100% 30.17 in 10.0 mi Calm Calm - N/A   Clear
9:55 AM 42.8 °F 42.8 °F 100% 30.18 in 7.0 mi Calm Calm - N/A   Clear
10:15 AM 46.4 °F 41.0 °F 81% 30.17 in 10.0 mi Calm Calm - N/A   Clear
10:35 AM 46.4 °F 33.8 °F 62% 30.18 in 10.0 mi Calm Calm - N/A   Clear
10:55 AM 50.0 °F 33.8 °F 54% 30.17 in 10.0 mi Calm Calm - N/A   Clear
11:15 AM 51.8 °F 33.8 °F 50% 30.16 in 10.0 mi Calm Calm - N/A   Clear
11:35 AM 53.6 °F 33.8 °F 47% 30.15 in 10.0 mi Calm Calm - N/A   Clear
11:55 AM 57.2 °F 32.0 °F 38% 30.12 in 10.0 mi Calm Calm - N/A   Clear
12:15 PM 59.0 °F 30.2 °F 34% 30.10 in 10.0 mi Calm Calm - N/A   Clear
12:35 PM 60.8 °F 26.6 °F 27% 30.08 in 10.0 mi South 3.5 mph - N/A   Clear
12:55 PM 62.6 °F 24.8 °F 24% 30.07 in 10.0 mi SSW 3.5 mph - N/A   Clear
1:15 PM 62.6 °F 26.6 °F 26% 30.06 in 10.0 mi Calm Calm - N/A   Clear
1:35 PM 62.6 °F 24.8 °F 24% 30.05 in 10.0 mi South 3.5 mph - N/A   Clear
1:55 PM 62.6 °F 26.6 °F 26% 30.04 in 10.0 mi Calm Calm - N/A   Clear
2:15 PM 62.6 °F 24.8 °F 24% 30.02 in 10.0 mi Calm Calm - N/A   Clear
2:35 PM 62.6 °F 26.6 °F 26% 30.02 in 10.0 mi Calm Calm - N/A   Clear
2:55 PM 64.4 °F 24.8 °F 22% 30.02 in 10.0 mi Calm Calm - N/A   Clear
3:15 PM 62.6 °F 24.8 °F 24% 30.02 in 10.0 mi Calm Calm - N/A   Clear
3:35 PM 62.6 °F 28.4 °F 27% 30.01 in 10.0 mi Calm Calm - N/A   Clear
3:55 PM 62.6 °F 26.6 °F 26% 30.01 in 10.0 mi Calm Calm - N/A   Clear
4:15 PM 62.6 °F 30.2 °F 30% 29.99 in 10.0 mi Calm Calm - N/A   Clear
4:35 PM 60.8 °F 32.0 °F 34% 29.98 in 10.0 mi Calm Calm - N/A   Clear
4:55 PM 60.8 °F 30.2 °F 31% 29.99 in 10.0 mi Calm Calm - N/A   Scattered Clouds
5:15 PM 59.0 °F 32.0 °F 36% 29.97 in 10.0 mi Calm Calm - N/A   Scattered Clouds
5:35 PM 59.0 °F 32.0 °F 36% 29.99 in 10.0 mi Calm Calm - N/A   Mostly Cloudy
5:55 PM 57.2 °F 32.0 °F 38% 30.01 in 10.0 mi Calm Calm - N/A   Overcast
6:15 PM 55.4 °F 39.2 °F 54% 30.00 in 10.0 mi Calm Calm - N/A Rain Light Rain
6:35 PM 51.8 °F 46.4 °F 82% 30.02 in 5.0 mi Calm Calm - N/A Rain Rain
6:55 PM 51.8 °F 50.0 °F 94% 30.01 in 4.0 mi Calm Calm - N/A Rain Light Rain
7:15 PM 51.8 °F 51.8 °F 100% 30.01 in 7.0 mi Calm Calm - N/A Rain Light Rain
7:35 PM 51.8 °F 51.8 °F 100% 30.02 in 5.0 mi Calm Calm - N/A Rain Light Rain
7:55 PM 51.8 °F 51.8 °F 100% 30.00 in 10.0 mi Calm Calm - N/A Rain Light Rain
8:15 PM 51.8 °F 51.8 °F 100% 29.99 in 5.0 mi Calm Calm - N/A Rain Light Rain
8:35 PM 51.8 °F 51.8 °F 100% 29.97 in 7.0 mi Calm Calm - N/A Rain Rain
8:55 PM 51.8 °F 51.8 °F 100% 29.96 in 4.0 mi Calm Calm - N/A Rain Rain
9:15 PM 51.8 °F 51.8 °F 100% 29.97 in 4.0 mi Calm Calm - N/A Rain Rain
9:35 PM 51.8 °F 51.8 °F 100% 29.96 in 7.0 mi Calm Calm - N/A Rain Light Rain
9:55 PM 51.8 °F 51.8 °F 100% 29.95 in 10.0 mi Calm Calm - N/A Rain Light Rain
10:15 PM 51.8 °F 51.8 °F 100% 29.94 in 10.0 mi Calm Calm - N/A   Overcast
10:35 PM 51.8 °F 51.8 °F 100% 29.94 in 10.0 mi Calm Calm - N/A   Overcast
10:55 PM 51.8 °F 51.8 °F 100% 29.92 in 10.0 mi Calm Calm - N/A   Overcast
11:15 PM 51.8 °F 51.8 °F 100% 29.91 in 10.0 mi Calm Calm - N/A   Overcast
11:35 PM 51.8 °F 51.8 °F 100% 29.92 in 10.0 mi Calm Calm - N/A   Overcast
11:55 PM 51.8 °F 51.8 °F 100% 29.91 in 10.0 mi Calm Calm - N/A   Overcast